| time (UTC) | temp C | wind direction | speed KPH | gust KPH | rain 1hr cm | rain 24hr cm | rain mn cm | humidity % | barometer mb |
| 20260507065608 | 9 | 18 | 1.6 | 3.2 | 0.00 | 0.00 | 0.00 | 37 | 1015.9 |
| 20260507063928 | 8 | 49 | 1.6 | 3.2 | 0.00 | 0.00 | 0.00 | 37 | 1015.8 |
| 20260507062228 | 9 | 84 | 1.6 | 3.2 | 0.00 | 0.00 | 0.00 | 37 | 1015.7 |
| 20260507060358 | 8 | 106 | 3.2 | 4.8 | 0.00 | 0.00 | 0.00 | 35 | 1015.7 |
| 20260507054628 | 8 | 122 | 0.0 | 1.6 | 0.00 | 0.00 | 0.00 | 36 | 1015.7 |
| 20260507052823 | 8 | 107 | 4.8 | 8.0 | 0.00 | 0.00 | 0.00 | 35 | 1015.7 |
| 20260507051001 | 7 | 8 | 1.6 | 3.2 | 0.00 | 0.00 | 0.00 | 37 | 1015.7 |
| 20260507050958 | 7 | 8 | 1.6 | 3.2 | 0.00 | 0.00 | 0.00 | 37 | 1015.7 |
| 20260507045318 | 3 | 348 | 1.6 | 3.2 | 0.00 | 0.00 | 0.00 | 48 | 1015.8 |
| 20260507043428 | 3 | 353 | 0.0 | 3.2 | 0.00 | 0.00 | 0.00 | 48 | 1015.8 |
| 20260507041733 | 3 | 40 | 1.6 | 3.2 | 0.00 | 0.00 | 0.00 | 49 | 1015.8 |
| 20260507035813 | 3 | 20 | 1.6 | 4.8 | 0.00 | 0.00 | 0.00 | 50 | 1015.6 |
| 20260507034138 | 2 | 7 | 1.6 | 4.8 | 0.00 | 0.00 | 0.00 | 50 | 1015.5 |
| 20260507032138 | 2 | 38 | 1.6 | 4.8 | 0.00 | 0.00 | 0.00 | 50 | 1015.3 |
| 20260507030328 | 2 | 167 | 0.0 | 1.6 | 0.00 | 0.00 | 0.00 | 50 | 1015.5 |
| 20260507024603 | 3 | 38 | 1.6 | 4.8 | 0.00 | 0.00 | 0.00 | 49 | 1015.5 |
| 20260507022848 | 3 | 36 | 0.0 | 1.6 | 0.00 | 0.00 | 0.00 | 48 | 1015.5 |
| 20260507021100 | 3 | 65 | 0.0 | 0.0 | 0.00 | 0.00 | 0.00 | 50 | 1015.4 |
| 20260507015235 | 3 | 18 | 0.0 | 1.6 | 0.00 | 0.00 | 0.00 | 48 | 1015.3 |
| 20260507013453 | 3 | 156 | 0.0 | 1.6 | 0.00 | 0.00 | 0.00 | 49 | 1015.3 |
| 20260507011653 | 3 | 205 | 0.0 | 1.6 | 0.00 | 0.00 | 0.00 | 48 | 1015.3 |
| 20260507005844 | 3 | 273 | 1.6 | 3.2 | 0.00 | 0.00 | 0.00 | 46 | 1015.0 |
| 20260507004018 | 4 | 247 | 0.0 | 1.6 | 0.00 | 0.00 | 0.00 | 49 | 1015.0 |
| 20260507002218 | 4 | 357 | 0.0 | 1.6 | 0.00 | 0.00 | 0.00 | 45 | 1015.0 |
| 20260507000443 | 5 | 2 | 0.0 | 3.2 | 0.00 | 0.00 | 0.00 | 43 | 1015.0 |
| 20260506234708 | 4 | 337 | 1.6 | 6.4 | 0.00 | 0.00 | 0.00 | 46 | 1015.0 |
| 20260506232833 | 5 | 315 | 0.0 | 3.2 | 0.00 | 0.00 | 0.00 | 48 | 1015.0 |
| 20260506231024 | 5 | 51 | 0.0 | 1.6 | 0.00 | 0.00 | 0.00 | 52 | 1015.0 |
| 20260506225123 | 5 | 316 | 0.0 | 1.6 | 0.00 | 0.00 | 0.00 | 56 | 1014.9 |
| 20260506223348 | 5 | 331 | 0.0 | 1.6 | 0.00 | 0.00 | 0.00 | 63 | 1014.8 |
| 20260506221638 | 4 | 335 | 0.0 | 3.2 | 0.00 | 0.00 | 0.00 | 80 | 1014.8 |
| 20260506220028 | 4 | 62 | 0.0 | 1.6 | 0.00 | 0.00 | 0.00 | 87 | 1014.7 |
| 20260506214033 | 4 | 53 | 0.0 | 0.0 | 0.00 | 0.00 | 0.00 | 85 | 1014.6 |
| 20260506212328 | 5 | 38 | 1.6 | 1.6 | 0.00 | 0.00 | 0.00 | 84 | 1014.6 |
| 20260506210351 | 4 | 39 | 0.0 | 1.6 | 0.00 | 0.00 | 0.00 | 85 | 1.0 |
| 20260506210348 | 4 | 39 | 0.0 | 1.6 | 0.00 | 0.00 | 0.00 | 85 | 1014.5 |
| 20260506204548 | 6 | 192 | 0.0 | 1.6 | 0.00 | 0.00 | 0.00 | 72 | 1014.4 |
| 20260506202828 | 6 | 252 | 0.0 | 0.0 | 0.00 | 0.00 | 0.00 | 73 | 1014.4 |
| 20260506201053 | 6 | 211 | 1.6 | 3.2 | 0.00 | 0.00 | 0.00 | 70 | 1014.2 |
| 20260506195321 | 6 | 130 | 0.0 | 0.0 | 0.00 | 0.00 | 0.00 | 68 | 1014.2 |
| 20260506193343 | 6 | 182 | 0.0 | 1.6 | 0.00 | 0.00 | 0.00 | 66 | 1014.2 |
| 20260506191539 | 6 | 107 | 1.6 | 0.0 | 0.00 | 0.00 | 0.00 | 66 | 1014.2 |
| 20260506191534 | 6 | 107 | 1.6 | 1.6 | 0.00 | 0.00 | 0.00 | 66 | 1014.2 |
| 20260506185533 | 6 | 160 | 1.6 | 3.2 | 0.00 | 0.00 | 0.00 | 64 | 1014.2 |
| 20260506183550 | 6 | 209 | 4.8 | 6.4 | 0.00 | 0.00 | 0.00 | 65 | 1014.2 |
| 20260506181833 | 7 | 200 | 4.8 | 8.0 | 0.00 | 0.00 | 0.00 | 63 | 1014.1 |
| 20260506180158 | 7 | 200 | 9.7 | 14.5 | 0.00 | 0.00 | 0.00 | 62 | 1014.2 |
| 20260506174533 | 7 | 200 | 6.4 | 9.7 | 0.00 | 0.00 | 0.00 | 55 | 1014.1 |
| 20260506172658 | 8 | 173 | 3.2 | 8.0 | 0.00 | 0.00 | 0.00 | 53 | 1014.0 |
| 20260506170813 | 8 | 197 | 4.8 | 8.0 | 0.00 | 0.00 | 0.00 | 51 | 1014.0 |
| 20260506165149 | 8 | 157 | 1.6 | 6.4 | 0.00 | 0.00 | 0.00 | 51 | |
| 20260506165143 | 8 | 157 | 1.6 | 6.4 | 0.00 | 0.00 | 0.00 | 51 | 1013.9 |
| 20260506163413 | 8 | 190 | 6.4 | 14.5 | 0.00 | 0.00 | 0.00 | 50 | 1013.8 |
| 20260506161803 | 8 | 113 | 3.2 | 8.0 | 0.00 | 0.00 | 0.00 | 55 | 1013.8 |
| 20260506155953 | 8 | 214 | 4.8 | 12.9 | 0.00 | 0.00 | 0.00 | 52 | 1013.7 |
| 20260506154253 | 7 | 155 | 3.2 | 8.0 | 0.00 | 0.00 | 0.00 | 56 | 1013.9 |
| 20260506152623 | 7 | 178 | 4.8 | 11.3 | 0.00 | 0.00 | 0.00 | 52 | 1014.0 |
| 20260506150838 | 7 | 202 | 12.9 | 19.3 | 0.00 | 0.00 | 0.00 | 53 | 1014.0 |
| 20260506145221 | 8 | 195 | 11.3 | 20.9 | 0.00 | 0.00 | 0.00 | 50 | 1014.0 |
| 20260506145218 | 8 | 195 | 11.3 | 20.9 | 0.00 | 0.00 | 0.00 | 50 | 1014.0 |
| 20260506143258 | 8 | 126 | 4.8 | 9.7 | 0.00 | 0.00 | 0.00 | 50 | 1013.8 |
| 20260506141520 | 8 | 189 | 8.0 | 19.3 | 0.00 | 0.00 | 0.00 | 47 | 1013.9 |
| 20260506135618 | 9 | 195 | 4.8 | 11.3 | 0.00 | 0.00 | 0.00 | 46 | 1013.9 |
| 20260506133846 | 8 | 168 | 4.8 | 9.7 | 0.00 | 0.00 | 0.00 | 49 | 1013.9 |
| 20260506131943 | 8 | 202 | 4.8 | 14.5 | 0.00 | 0.00 | 0.00 | 49 | 1013.7 |
| 20260506130343 | 8 | 182 | 4.8 | 11.3 | 0.00 | 0.00 | 0.00 | 51 | 1013.8 |
| 20260506124638 | 7 | 193 | 6.4 | 12.9 | 0.00 | 0.00 | 0.00 | 61 | 1014.0 |
| 20260506122848 | 6 | 203 | 14.5 | 24.1 | 0.00 | 0.00 | 0.00 | 63 | 1013.8 |
| 20260506121242 | 7 | 199 | 11.3 | 22.5 | 0.00 | 0.00 | 0.00 | 62 | 1013.8 |
| 20260506115543 | 6 | 199 | 14.5 | 25.7 | 0.00 | 0.00 | 0.00 | 69 | 1013.8 |
| 20260506115538 | 6 | 199 | 14.5 | 25.7 | 0.00 | 0.00 | 0.00 | 69 | 1013.8 |
| 20260506113643 | 7 | 190 | 8.0 | 20.9 | 0.00 | 0.00 | 0.00 | 60 | 1013.8 |
| 20260506112013 | 8 | 192 | 9.7 | 20.9 | 0.00 | 0.00 | 0.00 | 58 | 1013.7 |
| 20260506110203 | 7 | 196 | 17.7 | 27.4 | 0.00 | 0.00 | 0.00 | 64 | 13.7 |
| 20260506110200 | 7 | 196 | 17.7 | 27.4 | 0.00 | 0.00 | 0.00 | 64 | 1013.7 |
| 20260506104604 | 7 | 199 | 9.7 | 19.3 | 0.00 | 0.00 | 0.00 | 58 | 1013.7 |
| 20260506104558 | 7 | 199 | 9.7 | 19.3 | 0.00 | 0.00 | 0.00 | 58 | 1013.7 |
| 20260506102718 | 7 | 205 | 6.4 | 12.9 | 0.00 | 0.00 | 0.00 | 60 | 1013.7 |
| 20260506100723 | 10 | 128 | 3.2 | 8.0 | 0.00 | 0.00 | 0.00 | 47 | 1013.6 |
| 20260506094751 | -17 | 206 | 6.4 | 14.5 | 0.00 | 0.00 | 0.00 | 46 | 1013.4 |
| 20260506094748 | 10 | 206 | 6.4 | 14.5 | 0.00 | 0.00 | 0.00 | 46 | 1013.4 |
| 20260506092943 | 10 | 183 | 3.2 | 8.0 | 0.00 | 0.00 | 0.00 | 30 | 1013.3 |
| 20260506091113 | 10 | 357 | 3.2 | 6.4 | 0.00 | 0.00 | 0.00 | 31 | 1013.3 |
| 20260506085233 | 8 | 341 | 4.8 | 9.7 | 0.00 | 0.00 | 0.00 | 44 | 1013.0 |
| 20260506083608 | 8 | 291 | 3.2 | 6.4 | 0.00 | 0.00 | 0.00 | 41 | 1013.0 |
| 20260506081738 | 8 | 299 | 4.8 | 16.1 | 0.00 | 0.00 | 0.00 | 44 | 1012.9 |
| 20260506072321 | 8 | 62 | 4.8 | 0.0 | 0.00 | 0.00 | 0.00 | 49 | 1012.6 |
| 20260506072318 | 8 | 62 | 4.8 | 8.0 | 0.00 | 0.00 | 0.00 | 49 | 1012.6 |
| 20260506070430 | 7 | 284 | 3.2 | 9.7 | 0.00 | 0.00 | 0.00 | 49 | 1012.5 |